This is the latest recevied weather packets stored in our database for station/object SR2WXM. If no packets are shown the sender has not sent any weather packets the latest 10 day(s).
| Time | Temp. | Humidity | Pressure | Rain* | Wind** | Luminosity | Snow |
|---|---|---|---|---|---|---|---|
| 1778051703 | 15° C | 72% | 1002.3 hPa | 0 mm | - | - | - |
| 1778050804 | 13.89° C | 74% | 1002.3 hPa | 0 mm | - | - | - |
| 1778049902 | 15° C | 72% | 1002 hPa | 0 mm | - | - | - |
| 1778049003 | 13.89° C | 74% | 1002 hPa | 0 mm | - | - | - |
| 1778048103 | 12.78° C | 81% | 1002.3 hPa | 0 mm | - | - | - |
| 1778047203 | 11.67° C | 85% | 1002.3 hPa | 0 mm | - | - | - |
| 1778046304 | 11.67° C | 89% | 1002.3 hPa | 0 mm | - | - | - |
| 1778045403 | 11.67° C | 89% | 1002.7 hPa | 0 mm | - | - | - |
| 1778044503 | 10.56° C | 93% | 1002.3 hPa | 0 mm | - | - | - |
| 1778043603 | 10° C | 96% | 1003 hPa | 0 mm | - | - | - |
| 1778042701 | 10° C | 97% | 1003 hPa | 0 mm | - | - | - |
| 1778041804 | 10° C | 98% | 1003 hPa | 0 mm | - | - | - |
| 1778040903 | 10° C | 98% | 1003 hPa | 0 mm | - | - | - |
| 1778040005 | 10° C | 99% | 1003 hPa | 0 mm | - | - | - |
| 1778039103 | 10° C | 99% | 1003.3 hPa | 0 mm | - | - | - |
| 1778038203 | 8.89° C | 99% | 1003.3 hPa | 0 mm | - | - | - |
| 1778037302 | 8.89° C | 99% | 1003.3 hPa | 0 mm | - | - | - |
| 1778036403 | 8.89° C | 99% | 1003.3 hPa | 0 mm | - | - | - |
| 1778035502 | 8.89° C | 99% | 1003.7 hPa | 0 mm | - | - | - |
| 1778034603 | 8.89° C | 99% | 1004 hPa | 0 mm | - | - | - |
| 1778033703 | 8.89° C | 99% | 1004 hPa | 0 mm | - | - | - |
| 1778032803 | 10° C | 99% | 1004 hPa | 0 mm | - | - | - |
| 1778031902 | 10° C | 99% | 1004 hPa | 0 mm | - | - | - |
| 1778031002 | 10° C | 99% | 1004 hPa | 0 mm | - | - | - |
| 1778030102 | 10° C | 99% | 1004.7 hPa | 0 mm | - | - | - |
* Rain latest hour (hover to see other rain measurements)
** Current wind speed in m/s (hover to see current wind gust speed)